This demonstration page uses our WeatherBlox Daily Observations layout. Learn more.

Hourly Observations for November 1, 2020

Temp ( °F °C ) Dew Point ( °F °C ) Humidity (%) Winds ( mph kmh ) Pressure ( in mb ) Visibility ( mi km ) Precip ( " mm )
12:15 am 00:15 Cloudy 45 7 39 4 81 81 S 5 7 30.36 1028 10 16.0934 0 0
12:35 am 00:35 Cloudy 45 7 41 5 87 87 SSW 3 6 30.36 1028 10 16.0934 0 0
12:55 am 00:55 Cloudy 45 7 41 5 87 87 S 5 7 30.34 1027 10 16.0934 0 0
1:15 am 01:15 Cloudy 45 7 41 5 87 87 S 6 9 30.34 1027 10 16.0934 0 0
1:35 am 01:35 Cloudy 45 7 41 5 87 87 S 3 6 30.33 1027 10 16.0934 0 0
1:55 am 01:55 Cloudy 45 7 41 5 87 87 S 3 6 30.32 1027 10 16.0934 0 0
1:15 am 01:15 Cloudy 45 7 41 5 87 87 S 6 9 30.31 1026 10 16.0934 0 0
1:35 am 01:35 Cloudy 45 7 41 5 87 87 SSW 7 11 30.31 1026 10 16.0934 0 0
1:55 am 01:55 Cloudy 45 7 41 5 87 87 S 5 7 30.3 1026 10 16.0934 0 0
2:15 am 02:15 Cloudy 45 7 41 5 87 87 SSW 3 6 30.28 1025 10 16.0934 0 0
2:35 am 02:35 Mostly Cloudy 45 7 41 5 87 87 SSW 6 9 30.28 1025 10 16.0934 0 0
2:55 am 02:55 Mostly Cloudy 43 6 41 5 93 93 SSW 6 9 30.27 1025 10 16.0934 0 0
3:15 am 03:15 Cloudy 43 6 41 5 93 93 S 6 9 30.26 1025 10 16.0934 0 0
3:35 am 03:35 Cloudy 45 7 41 5 87 87 S 5 7 30.25 1024 10 16.0934 0 0
3:55 am 03:55 Cloudy 45 7 41 5 87 87 SSW 3 6 30.24 1024 10 16.0934 0 0
4:15 am 04:15 Cloudy 45 7 41 5 87 87 S 6 9 30.23 1024 10 16.0934 0 0
4:35 am 04:35 Partly Cloudy 45 7 41 5 87 87 S 7 11 30.22 1023 10 16.0934 0 0
4:55 am 04:55 Clear 43 6 41 5 93 93 S 6 9 30.22 1023 10 16.0934 0 0
5:15 am 05:15 Clear 43 6 41 5 93 93 S 7 11 30.2 1023 10 16.0934 0 0
5:35 am 05:35 Clear 43 6 41 5 93 93 S 7 11 30.19 1022 10 16.0934 0 0
5:55 am 05:55 Clear 43 6 43 6 100 100 S 8 13 30.18 1022 10 16.0934 0 0
6:15 am 06:15 Clear 43 6 43 6 100 100 S 7 11 30.17 1022 10 16.0934 0 0
6:35 am 06:35 Partly Cloudy 43 6 43 6 100 100 S 7 11 30.15 1021 10 16.0934 0 0
6:55 am 06:55 Sunny 43 6 43 6 100 100 S 8 13 30.15 1021 10 16.0934 0 0
7:15 am 07:15 Sunny 43 6 43 6 100 100 S 5 7 30.14 1021 10 16.0934 0 0
7:35 am 07:35 Mostly Cloudy 45 7 43 6 93 93 S 9 15 30.12 1020 10 16.0934 0 0
7:55 am 07:55 Mostly Cloudy 45 7 43 6 93 93 S 8 13 30.11 1020 10 16.0934 0 0
8:15 am 08:15 Partly Cloudy 45 7 43 6 93 93 S 12 19 30.11 1020 10 16.0934 0 0
8:35 am 08:35 Cloudy 45 7 43 6 93 93 S 14 22 30.09 1019 10 16.0934 0 0
8:55 am 08:55 Cloudy 46 8 45 7 93 93 S 13 20 30.09 1019 10 16.0934 0 0
9:15 am 09:15 Cloudy 46 8 45 7 93 93 SSW 15 24 30.08 1019 10 16.0934 0 0
9:35 am 09:35 Cloudy 45 7 45 7 100 100 SSW 13 20 30.07 1018 7 11.26538 0 0
9:55 am 09:55 Cloudy 45 7 45 7 100 100 SSW 10 17 30.05 1018 5 8.0467 0 0
10:15 am 10:15 Cloudy 45 7 45 7 100 100 S 13 20 30.03 1017 4 6.43736 0 0
10:35 am 10:35 Cloudy 45 7 45 7 100 100 S 13 20 30.02 1017 5 8.0467 0 0
11:15 am 11:15 Cloudy 45 7 45 7 100 100 S 10 17 29.98 1015 10 16.0934 0 0
11:35 am 11:35 Cloudy 45 7 45 7 100 100 SSW 15 24 29.98 1015 10 16.0934 0 0
11:55 am 11:55 Cloudy 45 7 45 7 100 100 SSW 13 20 29.95 1014 10 16.0934 0 0
12:15 pm 12:15 Cloudy 46 8 46 8 100 100 SSW 10 17 29.92 1013 10 16.0934 0 0
12:35 pm 12:35 Cloudy 46 8 46 8 100 100 SSW 13 20 29.89 1012 10 16.0934 0 0
12:55 pm 12:55 Cloudy 46 8 46 8 100 100 S 12 19 29.87 1011 10 16.0934 0 0
1:15 pm 13:15 Cloudy 46 8 46 8 100 100 S 12 19 29.86 1011 10 16.0934 0 0
1:35 pm 13:35 Cloudy 46 8 46 8 100 100 S 12 19 29.83 1010 10 16.0934 0 0
1:55 pm 13:55 Cloudy 48 9 48 9 100 100 S 8 13 29.82 1010 10 16.0934 0 0
2:15 pm 14:15 Cloudy 48 9 48 9 100 100 S 14 22 29.8 1009 10 16.0934 0 0
2:35 pm 14:35 Cloudy 50 10 50 10 100 100 S 13 20 29.78 1008 10 16.0934 0 0
2:55 pm 14:55 Cloudy 50 10 50 10 100 100 SSW 10 17 29.78 1008 10 16.0934 0 0
3:15 pm 15:15 Cloudy 50 10 48 9 94 94 S 10 17 29.77 1008 10 16.0934 0 0
3:35 pm 15:35 Cloudy 50 10 48 9 94 94 SW 8 13 29.78 1008 10 16.0934 0 0
3:55 pm 15:55 Cloudy 50 10 48 9 94 94 NW 5 7 29.79 1009 10 16.0934 0 0
4:15 pm 16:15 Mostly Cloudy 50 10 50 10 100 100 SSW 3 6 29.78 1008 10 16.0934 0 0
4:35 pm 16:35 Mostly Cloudy 50 10 48 9 94 94 S 6 9 29.79 1009 10 16.0934 0 0
4:55 pm 16:55 Cloudy 50 10 48 9 94 94 NW 6 9 29.82 1010 10 16.0934 0 0
5:15 pm 17:15 Mostly Cloudy 52 11 37 3 58 58 WNW 22 35 29.81 1010 10 16.0934 0 0
5:35 pm 17:35 Partly Cloudy 52 11 36 2 54 54 NW 18 30 29.82 1010 10 16.0934 0 0
5:55 pm 17:55 Partly Cloudy 52 11 34 1 50 50 WNW 17 28 29.83 1010 10 16.0934 0 0
6:15 pm 18:15 Partly Cloudy 50 10 32 0 50 50 NW 17 28 29.85 1011 10 16.0934 0 0
6:35 pm 18:35 Clear 50 10 30 -1 47 47 NW 17 28 29.86 1011 10 16.0934 0 0
6:55 pm 18:55 Clear 52 11 30 -1 44 44 WNW 21 33 29.86 1011 10 16.0934 0 0
7:15 pm 19:15 Clear 50 10 28 -2 43 43 NW 20 31 29.88 1012 10 16.0934 0 0
7:35 pm 19:35 Clear 50 10 27 -3 40 40 NW 20 31 29.89 1012 10 16.0934 0 0
7:55 pm 19:55 Clear 50 10 28 -2 43 43 NW 32 52 29.91 1013 10 16.0934 0 0
8:15 pm 20:15 Clear 46 8 27 -3 46 46 NW 28 44 29.92 1013 10 16.0934 0 0
8:35 pm 20:35 Partly Cloudy 46 8 25 -4 43 43 WNW 29 46 29.94 1014 10 16.0934 0 0
8:55 pm 20:55 Partly Cloudy 45 7 27 -3 49 49 NW 16 26 29.96 1015 10 16.0934 0 0
9:15 pm 21:15 Partly Cloudy 45 7 23 -5 42 42 WNW 25 41 29.97 1015 10 16.0934 0 0
9:35 pm 21:35 Partly Cloudy 43 6 27 -3 53 53 NW 26 43 29.99 1016 10 16.0934 0.01 0.254
9:55 pm 21:55 Mostly Cloudy 41 5 27 -3 57 57 NW 22 35 30 1016 10 16.0934 0.01 0.254
10:15 pm 22:15 Mostly Cloudy 41 5 23 -5 49 49 NW 25 41 30.01 1016 10 16.0934 0 0
10:35 pm 22:35 Partly Cloudy 39 4 23 -5 52 52 NW 16 26 30.03 1017 10 16.0934 0 0
10:55 pm 22:55 Clear 37 3 21 -6 52 52 NW 22 35 30.03 1017 10 16.0934 0 0
11:15 pm 23:15 Clear 37 3 21 -6 52 52 NW 24 39 30.02 1016 10 16.0934 0 0
11:35 pm 23:35 Clear 37 3 21 -6 52 52 NW 16 26 30.02 1016 10 16.0934 0 0
11:55 pm 23:55 Clear 37 3 21 -6 52 52 WNW 12 19 30.03 1017 10 16.0934 0 0

Powered by AerisWeather